Location: Calvera
(42.3882°N, 0.6137°E)
Time: 20:15:51
(UTC+00:00)

SL-27 R/B - Pass Details

Date: 28 October 2020
Orbit: 419 x 469 km, 74.7° (Epoch: 22 November)

Event Time Altitude Azimuth Distance (km) Brightness Sun altitude
Rises 05:24:49 0° 179° (S) 2,484 6.3 -11.9°
Reaches altitude 10° 05:27:00 10° 170° (S) 1,618 5.4 -11.5°
Maximum altitude 05:30:17 35° 103° (ESE) 769 4.3 -10.9°
Drops below altitude 10° 05:33:37 10° 36° (NE) 1,639 5.6 -10.3°
Sets 05:35:50 0° 28° (NNE) 2,520 6.5 -9.9°
